Wind_Speed
8 8 8 7 6 4 2 2 2 4 6 7 7 8 8 8 8 6 5 6 6 6 7 6 6 6 6 6 6 6 6 6 6 6 6 6 6 6 5 5 4 4 4 4 4 3 3 2 2
9 9 8 7 6 4 2 2 2 5 6 7 7 7 8 8 7 7 6 6 6 7 7 6 6 6 6 6 6 7 7 7 7 7 7 6 6 6 6 5 5 5 5 5 5 4 4 3 3
10 9 9 8 6 4 2 1 3 6 7 8 8 7 7 7 7 7 6 5 6 6 7 6 6 6 6 6 6 7 7 7 7 7 7 7 6 6 5 5 6 5 5 5 5 5 5 4 4
10 10 9 8 6 4 2 1 3 5 6 7 8 7 8 8 8 7 6 6 6 6 6 6 6 6 6 7 7 7 7 7 8 8 8 7 6 6 6 6 6 6 6 6 6 5 6 6 5
12 11 10 8 6 3 2 3 4 5 6 6 7 8 8 8 8 7 6 6 6 6 6 7 6 6 7 7 7 7 8 8 8 8 8 7 7 7 7 7 7 7 7 6 6 6 6 6 6
13 11 11 9 7 4 3 5 5 6 6 7 8 9 8 8 8 8 7 6 6 6 7 7 7 7 7 7 8 8 8 8 9 9 8 8 8 8 8 8 7 8 7 7 6 6 6 6 6
13 12 11 10 9 6 4 6 6 7 8 8 9 8 8 8 8 8 7 7 6 7 7 7 7 7 7 7 8 8 8 8 9 9 8 8 8 8 8 8 8 8 8 7 7 7 6 6 6
14 13 12 12 10 6 5 7 8 8 9 9 9 8 9 9 9 8 7 7 7 7 8 7 7 7 8 8 8 8 9 9 10 9 9 8 8 8 8 8 8 8 8 8 8 7 7 6 6
15 14 13 12 10 8 7 8 9 10 10 10 9 9 10 10 9 8 8 8 7 7 8 8 7 7 8 8 9 8 9 10 10 9 9 8 8 9 9 9 9 9 8 8 8 8 8 7 7
15 14 13 13 11 8 8 9 10 11 10 10 9 9 9 8 8 7 8 7 7 7 8 8 8 8 8 9 9 9 9 10 10 9 9 8 8 9 9 9 9 9 9 9 8 8 8 8 8
16 15 13 14 11 9 9 10 10 12 11 11 10 10 9 8 8 8 7 7 8 8 8 8 9 9 9 9 9 10 10 10 10 10 9 9 9 9 10 10 10 9 9 9 9 9 8 8 8
17 16 15 15 13 11 10 10 11 12 12 12 11 11 10 9 9 9 8 8 9 9 9 9 10 10 10 10 10 10 10 10 11 11 10 9 10 10 10 11 11 10 10 9 9 10 10 8 8
18 17 16 15 15 12 11 11 11 12 12 11 12 11 11 10 10 10 9 9 9 9 9 11 11 12 10 9 10 10 10 11 11 11 10 9 10 10 10 11 11 11 11 10 10 10 10 10 9
17 17 16 16 13 12 11 11 11 10 11 11 11 12 12 12 11 11 10 9 10 10 10 11 11 11 10 9 10 10 10 11 11 11 11 10 10 10 11 11 11 11 11 11 11 10 11 11 11
18 18 17 15 13 12 13 12 11 11 12 12 11 12 12 11 12 11 11 11 11 11 11 11 11 11 10 10 10 10 10 11 11 12 12 11 11 11 12 12 12 12 11 12 11 11 11 12 12
19 17 16 14 14 13 13 12 11 12 12 12 12 12 12 11 11 12 12 11 11 11 11 11 11 10 10 11 11 10 11 11 11 13 13 12 12 13 13 13 13 12 12 12 13 13 12 13 12
18 17 15 14 14 14 12 11 11 12 12 12 13 12 11 11 11 11 12 12 12 11 11 11 12 11 11 11 11 11 11 11 12 13 14 13 13 13 13 14 13 12 13 13 13 13 13 13 13
17 16 16 14 13 14 13 12 11 11 13 13 13 13 12 12 12 12 12 13 12 12 12 12 11 11 12 12 11 11 11 12 12 13 14 14 14 14 14 14 13 13 13 13 13 13 13 14 14
17 17 16 15 14 15 15 14 12 12 14 14 14 14 13 13 13 14 14 13 12 12 13 12 11 12 13 13 13 13 13 13 13 13 14 14 14 14 15 15 14 14 13 14 14 14 14 15 15
18 18 17 16 15 15 16 15 13 13 14 14 15 14 14 14 14 14 14 14 14 14 14 14 14 13 13 13 14 13 14 14 13 13 13 14 14 14 14 14 14 14 14 14 14 15 15 15 15
19 19 17 16 16 17 17 16 14 14 15 16 16 16 17 16 16 15 14 15 15 15 15 15 15 15 14 14 14 14 15 15 14 14 14 15 15 16 15 15 15 15 15 15 15 15 15 16 16
19 18 17 17 18 18 18 19 16 15 17 18 17 17 17 16 15 15 14 15 15 15 15 15 15 16 15 14 14 14 15 15 14 14 15 16 16 17 17 17 16 17 16 16 15 16 16 16 17
18 19 19 19 20 20 19 20 17 17 18 18 18 18 17 16 15 16 15 15 16 16 15 16 16 16 16 15 15 15 15 16 16 15 16 16 16 17 18 17 16 16 17 17 17 17 17 17 17
18 20 21 21 22 22 20 21 19 18 18 18 19 19 18 16 16 17 17 17 17 18 17 16 16 16 16 16 15 15 16 16 16 16 16 16 16 16 17 17 16 16 17 17 18 17 17 17 17
21 21 22 22 22 21 20 21 20 19 19 19 19 19 19 17 17 18 19 18 18 19 18 16 17 16 16 16 16 16 17 17 17 16 16 17 17 17 18 18 17 16 16 16 17 17 17 17 18
22 21 21 22 22 21 21 21 21 20 19 19 19 18 18 18 18 19 19 19 19 20 19 18 17 17 16 16 17 16 16 17 17 17 17 18 19 19 19 19 17 15 15 16 16 17 18 18 18
22 22 22 23 23 23 23 23 22 20 18 18 18 18 19 19 18 18 19 20 20 19 19 17 17 17 17 16 16 17 17 17 17 18 19 19 19 18 18 18 17 16 16 16 16 16 17 18 18
22 21 23 24 24 26 25 24 23 20 18 18 17 18 18 18 18 19 19 19 20 20 19 18 18 18 18 17 17 17 17 18 18 18 19 19 19 19 18 17 17 17 16 16 16 16 16 17 17
22 23 24 25 25 26 26 25 22 20 19 18 18 19 19 18 18 19 19 18 18 18 19 19 18 18 17 18 17 17 18 18 18 18 19 20 20 19 18 18 17 17 17 16 16 16 16 16 16
24 25 25 27 27 27 27 26 22 21 21 20 20 20 19 19 20 19 19 18 17 17 17 18 18 18 18 17 17 18 18 18 18 18 19 19 20 19 19 19 18 18 17 16 16 16 16 16 16
Wind_Direction
159 158 154 150 153 143 118 68 39 347 341 340 340 338 344 351 358 4 6 12 14 16 11 9 7 1 360 359 353 347 342 336 331 326 321 317 314 312 306 303 308 309 308 304 297 284 271 252 239
168 167 168 170 166 146 113 58 358 335 336 339 339 335 339 347 353 355 349 357 5 8 8 4 1 355 353 353 349 344 340 334 329 326 321 317 314 309 302 296 302 306 304 300 295 284 272 265 255
178 175 177 180 177 169 158 74 346 336 335 335 328 330 333 338 345 348 346 350 358 2 3 358 353 354 352 349 344 338 336 332 327 322 318 313 313 310 303 299 300 301 300 297 293 284 277 276 270
186 186 192 192 195 193 191 284 319 321 326 323 318 322 325 329 339 344 344 350 348 354 356 350 349 348 347 347 343 338 335 331 327 322 316 311 311 308 304 303 302 299 298 297 293 286 279 277 273
197 201 198 202 208 208 240 283 298 308 319 310 312 313 315 318 328 338 350 350 345 345 345 343 344 342 339 339 338 338 336 331 326 323 316 309 307 308 302 300 301 297 295 294 294 291 286 278 271
203 207 203 206 215 225 266 278 297 296 309 309 306 310 310 314 320 327 340 342 340 339 335 335 338 337 334 331 332 334 336 336 330 324 317 308 304 305 302 298 295 293 290 289 291 291 287 283 273
207 212 209 215 231 241 276 289 292 290 295 304 302 306 314 314 315 317 326 333 334 332 330 327 329 332 332 330 331 333 333 333 330 324 316 308 300 300 302 301 297 290 285 286 286 287 285 282 273
212 215 215 217 227 240 261 275 281 281 285 297 303 308 316 316 311 312 318 324 325 323 322 321 320 325 328 328 328 329 330 331 327 321 314 306 301 297 299 297 296 290 287 285 282 279 281 280 268
216 216 215 218 224 236 255 265 274 288 291 299 304 304 309 313 311 313 314 315 317 319 322 320 318 322 323 325 325 325 326 328 327 322 312 301 295 292 296 295 293 291 287 283 279 275 275 272 264
215 219 220 226 235 235 251 266 271 283 288 292 299 301 303 307 308 311 311 314 319 322 326 323 321 321 322 322 323 322 322 324 324 321 314 302 295 294 296 297 293 287 283 277 273 271 266 265 264
218 220 223 226 230 238 252 267 278 281 286 289 296 301 302 300 303 306 309 311 315 317 318 320 320 318 316 317 319 321 323 322 320 318 312 304 300 297 296 293 288 283 278 272 268 268 263 260 261
220 220 222 220 226 237 250 265 276 281 289 288 294 299 306 301 302 300 305 310 311 312 314 315 315 314 312 313 314 318 322 322 321 319 314 307 302 300 297 292 287 283 278 276 270 264 264 259 266
220 221 222 224 228 236 252 264 269 275 282 285 290 294 299 299 293 294 298 302 303 306 307 308 308 313 315 314 315 319 323 321 320 321 316 315 307 300 295 292 288 285 280 277 273 267 262 261 262
217 219 223 230 232 242 254 261 262 269 279 283 288 294 299 297 296 291 294 299 298 300 305 302 302 308 313 312 314 315 318 318 317 318 314 310 305 299 293 293 289 283 280 278 273 271 268 264 260
217 221 224 226 231 239 247 251 259 265 274 279 284 288 293 294 298 297 299 300 294 295 300 300 301 303 305 305 307 307 309 313 313 313 311 310 306 298 295 293 290 286 278 274 270 268 269 267 261
219 221 223 225 229 236 244 252 260 264 272 279 283 285 290 296 301 302 301 296 294 295 297 298 298 301 300 301 299 301 304 307 310 310 308 309 306 300 297 295 289 283 279 275 270 267 270 270 266
223 222 223 226 235 239 243 253 260 263 272 278 280 285 289 294 298 302 303 299 298 295 294 295 296 296 299 298 293 294 299 303 307 309 309 306 303 300 296 296 289 280 277 277 274 270 271 269 267
224 229 230 230 236 242 248 255 256 265 270 273 277 282 290 295 298 301 301 297 295 294 291 293 292 294 295 295 291 289 296 301 305 307 307 304 299 298 297 294 291 283 278 277 278 275 272 269 266
224 231 234 231 233 242 250 255 260 268 267 273 278 281 284 289 295 297 300 298 295 294 289 287 290 295 296 295 296 293 296 300 302 304 306 304 303 299 297 294 292 286 278 276 277 276 273 271 268
224 228 232 229 232 241 248 254 260 264 269 274 277 281 283 287 292 294 295 295 294 293 294 291 293 293 296 295 296 294 294 297 299 300 302 302 303 302 298 296 292 287 280 278 277 275 273 271 267
225 229 232 235 235 240 249 255 257 262 266 267 270 277 281 283 287 290 289 288 289 290 292 292 292 292 292 292 293 294 292 295 298 298 299 300 300 300 296 294 290 286 279 277 276 274 274 272 266
228 230 234 237 238 242 249 254 253 261 265 268 273 277 280 283 284 285 289 285 283 287 289 290 294 295 293 290 290 293 293 293 294 296 297 299 300 300 298 294 291 285 281 277 274 274 273 270 266
231 231 234 238 243 244 251 258 256 258 264 270 276 278 278 279 282 282 285 283 280 283 285 283 287 292 294 291 288 290 292 291 291 292 296 300 303 304 301 297 292 286 281 278 274 274 273 268 266
231 231 235 239 243 247 251 257 258 259 265 271 273 274 276 278 280 279 279 278 277 279 279 281 282 287 291 288 285 287 291 292 291 293 296 298 301 304 302 299 296 290 283 280 276 274 271 268 266
233 234 237 240 244 248 251 257 259 259 265 267 269 273 276 279 280 279 276 275 276 275 276 280 285 286 290 286 283 284 286 289 291 293 295 298 298 300 300 300 296 292 286 281 278 275 273 270 267
236 236 240 245 246 247 249 255 256 258 260 261 268 274 277 280 279 276 275 276 276 276 276 280 280 284 288 288 285 284 286 286 287 292 295 296 296 297 297 297 295 293 291 286 281 277 275 271 268
235 237 241 247 249 249 251 253 256 257 258 260 266 272 274 274 274 275 277 277 277 276 274 275 277 284 288 291 290 285 287 286 287 290 293 295 295 296 296 295 294 294 293 288 282 279 276 273 268
237 240 242 245 248 251 253 253 256 260 263 260 261 269 271 270 272 277 278 275 276 275 274 272 276 283 286 289 293 290 289 289 290 292 294 296 294 294 294 292 292 294 293 289 283 278 277 275 272
235 237 242 246 249 252 255 254 255 259 263 264 266 269 268 271 274 277 277 275 272 272 274 274 279 283 285 288 292 293 292 292 292 292 293 295 296 292 291 291 291 294 294 290 286 277 276 273 272
236 236 239 243 247 250 252 254 255 258 261 264 268 269 273 273 273 276 276 272 276 274 274 275 280 282 284 288 292 293 292 291 289 290 292 295 296 291 288 288 290 292 293 291 287 278 275 273 270
Height
5903 5903 5904 5905 5905 5904 5903 5903 5903 5904 5904 5903 5903 5903 5903 5903 5903 5904 5900 5898 5897 5896 5896 5896 5895 5894 5894 5893 5892 5891 5890 5889 5888 5887 5886 5885 5885 5884 5883 5883 5882 5882 5881 5881 5880 5879 5879 5879 5879
5903 5903 5904 5905 5904 5904 5903 5903 5903 5904 5904 5903 5903 5903 5903 5902 5902 5901 5899 5898 5897 5896 5896 5896 5895 5895 5894 5893 5892 5891 5890 5889 5888 5887 5886 5885 5884 5883 5883 5882 5881 5881 5880 5880 5879 5879 5878 5878 5878
5902 5903 5904 5904 5903 5903 5903 5903 5903 5903 5903 5903 5903 5903 5903 5902 5901 5900 5899 5898 5897 5897 5896 5896 5895 5894 5894 5893 5892 5891 5890 5888 5887 5886 5885 5884 5883 5883 5882 5881 5881 5880 5880 5879 5879 5878 5878 5878 5877
5902 5903 5903 5903 5902 5903 5902 5903 5903 5902 5902 5902 5903 5903 5902 5902 5901 5900 5899 5898 5897 5896 5896 5895 5895 5894 5893 5893 5892 5890 5889 5888 5887 5886 5884 5883 5883 5882 5881 5881 5880 5879 5879 5878 5878 5877 5877 5877 5876
5901 5902 5902 5901 5901 5901 5901 5902 5902 5902 5902 5901 5901 5902 5901 5901 5900 5899 5898 5898 5897 5896 5896 5895 5894 5893 5893 5892 5891 5890 5889 5887 5886 5885 5884 5883 5882 5881 5880 5880 5879 5879 5878 5877 5877 5877 5876 5876 5875
5900 5900 5901 5901 5901 5901 5901 5901 5901 5901 5901 5901 5901 5901 5900 5900 5899 5898 5897 5897 5896 5896 5895 5894 5894 5893 5892 5891 5890 5889 5888 5886 5885 5884 5883 5882 5881 5880 5879 5879 5878 5878 5877 5876 5876 5876 5875 5875 5874
5898 5899 5900 5900 5900 5900 5900 5900 5900 5901 5900 5900 5900 5900 5899 5898 5898 5897 5897 5896 5896 5895 5895 5894 5893 5892 5891 5890 5889 5888 5887 5885 5884 5882 5881 5881 5880 5879 5878 5877 5877 5876 5876 5875 5875 5875 5874 5874 5874
5896 5898 5898 5899 5899 5899 5899 5899 5899 5899 5899 5899 5899 5899 5898 5897 5897 5896 5896 5895 5895 5894 5894 5893 5892 5891 5890 5889 5888 5887 5886 5884 5883 5881 5880 5879 5878 5878 5877 5876 5875 5875 5874 5874 5874 5873 5873 5873 5873
5894 5897 5897 5897 5898 5898 5897 5897 5898 5898 5898 5898 5898 5898 5898 5896 5896 5895 5895 5894 5894 5893 5892 5891 5891 5890 5889 5888 5887 5886 5884 5883 5881 5879 5878 5877 5877 5876 5875 5874 5874 5873 5873 5873 5872 5871 5871 5872 5871
5891 5894 5895 5896 5896 5896 5896 5896 5897 5897 5896 5896 5896 5896 5896 5895 5894 5894 5894 5893 5893 5892 5891 5890 5889 5888 5888 5887 5886 5884 5883 5881 5880 5878 5877 5876 5875 5874 5874 5873 5872 5872 5871 5871 5870 5869 5869 5870 5870
5889 5891 5892 5893 5893 5894 5894 5895 5895 5895 5895 5895 5895 5894 5894 5894 5893 5893 5892 5891 5891 5891 5890 5889 5888 5887 5886 5885 5884 5883 5881 5880 5878 5877 5876 5874 5873 5872 5872 5871 5870 5870 5869 5869 5868 5868 5867 5868 5868
5886 5888 5889 5890 5891 5891 5892 5893 5893 5893 5893 5893 5893 5892 5892 5892 5892 5891 5891 5890 5889 5888 5888 5887 5886 5885 5884 5883 5882 5881 5879 5878 5876 5875 5874 5873 5872 5871 5870 5869 5868 5868 5867 5867 5866 5866 5866 5866 5866
5883 5885 5886 5888 5888 5890 5890 5891 5891 5891 5891 5890 5890 5890 5890 5890 5890 5890 5889 5888 5888 5887 5886 5886 5885 5883 5882 5881 5880 5879 5877 5876 5875 5873 5872 5871 5870 5869 5868 5867 5866 5866 5865 5864 5864 5864 5864 5864 5864
5881 5882 5883 5885 5886 5887 5888 5889 5889 5889 5889 5889 5888 5888 5888 5888 5888 5887 5887 5886 5885 5885 5884 5883 5882 5882 5881 5880 5878 5877 5875 5874 5873 5871 5870 5869 5868 5867 5866 5865 5864 5863 5862 5862 5861 5861 5862 5862 5862
5877 5879 5881 5882 5883 5885 5886 5886 5887 5888 5887 5886 5887 5886 5886 5886 5885 5885 5884 5884 5883 5882 5882 5881 5880 5880 5879 5878 5876 5875 5873 5872 5871 5869 5868 5867 5865 5864 5863 5862 5861 5860 5860 5859 5858 5859 5859 5859 5859
5874 5876 5878 5880 5881 5882 5884 5884 5885 5885 5885 5884 5884 5884 5884 5884 5883 5882 5881 5881 5880 5879 5879 5878 5878 5877 5876 5875 5874 5872 5871 5870 5868 5867 5865 5864 5863 5862 5861 5860 5858 5858 5857 5856 5856 5856 5856 5855 5855
5871 5872 5875 5877 5878 5879 5880 5881 5882 5882 5882 5882 5882 5882 5881 5881 5880 5879 5879 5878 5877 5876 5876 5875 5874 5874 5874 5872 5871 5870 5869 5867 5866 5864 5863 5861 5860 5859 5858 5857 5855 5854 5854 5853 5853 5852 5852 5852 5852
5868 5869 5871 5873 5875 5876 5876 5878 5878 5879 5879 5879 5879 5878 5878 5877 5877 5877 5876 5875 5874 5873 5873 5872 5871 5871 5870 5869 5868 5867 5866 5865 5863 5861 5860 5858 5857 5856 5854 5853 5852 5851 5850 5850 5849 5849 5849 5848 5848
5864 5866 5867 5869 5871 5872 5872 5874 5874 5875 5875 5876 5875 5875 5874 5874 5874 5874 5873 5872 5871 5870 5870 5869 5869 5868 5867 5865 5864 5863 5862 5861 5860 5858 5857 5855 5854 5852 5851 5850 5848 5847 5846 5846 5845 5845 5845 5844 5844
5860 5862 5864 5866 5867 5868 5869 5870 5871 5872 5872 5872 5872 5872 5872 5872 5871 5870 5870 5869 5868 5867 5866 5865 5865 5865 5864 5863 5862 5861 5860 5858 5857 5856 5854 5852 5851 5849 5847 5846 5844 5843 5843 5842 5841 5841 5840 5840 5840
5856 5858 5860 5862 5863 5864 5865 5866 5867 5868 5868 5868 5867 5868 5868 5868 5868 5868 5866 5865 5865 5865 5864 5863 5862 5861 5860 5860 5858 5857 5856 5855 5854 5852 5851 5849 5847 5845 5843 5841 5840 5839 5838 5837 5837 5836 5836 5835 5835
5852 5855 5857 5858 5859 5860 5861 5861 5863 5864 5864 5864 5864 5864 5864 5864 5863 5863 5863 5861 5861 5861 5860 5859 5858 5857 5857 5856 5855 5853 5852 5851 5850 5849 5847 5845 5844 5842 5839 5837 5835 5834 5833 5832 5832 5831 5831 5830 5830
5848 5851 5852 5853 5854 5855 5856 5856 5859 5859 5859 5860 5860 5860 5860 5859 5859 5858 5858 5857 5856 5856 5856 5856 5855 5854 5853 5852 5851 5850 5849 5847 5846 5844 5843 5841 5840 5838 5835 5833 5831 5829 5828 5827 5826 5826 5825 5825 5824
5844 5846 5848 5848 5849 5850 5852 5852 5853 5855 5855 5855 5855 5855 5855 5855 5855 5854 5853 5853 5853 5852 5852 5851 5851 5850 5849 5848 5847 5846 5844 5843 5842 5840 5839 5837 5835 5833 5831 5828 5826 5824 5823 5822 5821 5820 5819 5819 5819
5839 5841 5843 5843 5844 5845 5847 5846 5848 5850 5850 5850 5850 5850 5850 5850 5850 5849 5849 5849 5848 5848 5847 5847 5846 5845 5845 5843 5842 5841 5840 5839 5838 5836 5834 5832 5831 5829 5826 5823 5821 5819 5818 5816 5815 5814 5813 5813 5813
5834 5836 5838 5839 5839 5841 5841 5841 5843 5844 5844 5845 5845 5845 5845 5845 5845 5844 5844 5843 5843 5842 5842 5842 5842 5841 5840 5839 5838 5836 5835 5834 5833 5831 5829 5828 5826 5824 5821 5819 5816 5814 5812 5810 5809 5808 5807 5806 5806
5829 5830 5833 5833 5834 5835 5835 5836 5837 5837 5839 5839 5839 5840 5840 5840 5839 5839 5838 5838 5837 5837 5837 5837 5837 5837 5836 5834 5833 5832 5830 5829 5828 5826 5825 5823 5820 5818 5816 5813 5811 5809 5807 5805 5804 5802 5801 5800 5800
5824 5826 5827 5827 5828 5828 5829 5830 5832 5832 5833 5834 5834 5834 5835 5835 5835 5834 5833 5832 5831 5831 5832 5832 5832 5832 5831 5830 5829 5827 5826 5824 5822 5821 5819 5817 5815 5813 5811 5809 5807 5804 5802 5800 5798 5797 5795 5794 5793
5819 5820 5820 5821 5822 5823 5823 5826 5827 5827 5828 5828 5829 5830 5830 5830 5830 5829 5827 5827 5827 5827 5827 5827 5827 5827 5826 5825 5823 5822 5820 5819 5817 5816 5814 5812 5810 5807 5806 5804 5802 5799 5797 5795 5793 5791 5790 5789 5788
5812 5813 5815 5816 5817 5817 5817 5821 5821 5822 5823 5823 5824 5824 5824 5824 5824 5824 5822 5822 5822 5822 5821 5822 5822 5821 5820 5819 5817 5816 5815 5813 5812 5810 5808 5806 5804 5801 5800 5798 5796 5794 5792 5790 5788 5786 5785 5784 5783